Location: Elaina
(34.1445°N, 106.7742°W)
Time: 12:00:47
(UTC+00:00)

NOSS 3-1 (C) - Pass Details

Date: 23 March 2026
Orbit: 618 x 1583 km, 63.4° (Epoch: 10 January)

Event Time Altitude Azimuth Distance (km) Brightness Sun altitude
Rises 09:55:32 0° 343° (NNW) 3,783 6.8 -38.2°
Reaches altitude 10° 09:59:04 10° 2° (N) 3,013 6.4 -37.6°
Maximum altitude 10:03:50 18° 43° (NE) 2,684 6.4 -36.8°
Drops below altitude 10° 10:09:10 10° 83° (E) 3,461 7.0 -35.8°
Sets 10:13:37 0° 101° (E) 4,584 7.6 -35.1°
